28 | 09 | 2021

Klimadaten

Klimadaten von der Klimastation Reinstorf   ( 5 m Messungen )

Datum Zeit Temp.Außen Temp.min Temp.max Feuchte Auße Luftdruck Regen Wind Richtung Richtung Sonnenschein Zeit Temp. A ET UV Solar Taupunkt Windchill Windböen
27.09.21 00:00:00 14,8 °C 14,6 °C 14,9 °C 94,00% 1016,9 hPa 0,0 mm 0,0 km/h (0 Bft) NW 315 ° 0 min 0 min 0,000 mm 0,0 UV-I 0 W/m² 13,8 °C 14,6 °C 1,6 km/h (1 Bft)
27.09.21 00:15:00 15,1 °C 14,8 °C 15,1 °C 93,00% 1016,8 hPa 0,0 mm 0,0 km/h (0 Bft) NW 315 ° 0 min 0 min 0,000 mm 0,0 UV-I 0 W/m² 14,0 °C 14,8 °C 1,6 km/h (1 Bft)
27.09.21 00:30:00 15,2 °C 15,1 °C 15,4 °C 93,00% 1016,6 hPa 0,0 mm 0,0 km/h (0 Bft) N-NO 22 ° 0 min 0 min 0,000 mm 0,0 UV-I 0 W/m² 14,1 °C 15,1 °C 3,2 km/h (1 Bft)
27.09.21 00:45:00 14,9 °C 14,8 °C 15,4 °C 93,00% 1016,7 hPa 0,0 mm 0,0 km/h (0 Bft) NW 315 ° 0 min 0 min 0,000 mm 0,0 UV-I 0 W/m² 13,8 °C 14,8 °C 3,2 km/h (1 Bft)
27.09.21 01:00:00 15,1 °C 14,9 °C 15,1 °C 93,00% 1016,6 hPa 0,0 mm 0,0 km/h (0 Bft) NO 45 ° 0 min 0 min 0,000 mm 0,0 UV-I 0 W/m² 14,0 °C 14,9 °C 4,8 km/h (1 Bft)
27.09.21 01:15:00 15,2 °C 15,1 °C 15,2 °C 94,00% 1016,5 hPa 0,0 mm 0,0 km/h (0 Bft) O-SO 112 ° 0 min 0 min 0,000 mm 0,0 UV-I 0 W/m² 14,2 °C 15,1 °C 3,2 km/h (1 Bft)
27.09.21 01:30:00 15,3 °C 15,2 °C 15,3 °C 93,00% 1016,4 hPa 0,0 mm 0,0 km/h (0 Bft) N-NO 22 ° 0 min 0 min 0,000 mm 0,0 UV-I 0 W/m² 14,2 °C 15,2 °C 3,2 km/h (1 Bft)
27.09.21 01:45:00 14,7 °C 14,7 °C 15,3 °C 92,00% 1016,5 hPa 0,0 mm 0,0 km/h (0 Bft) W-NW 292 ° 0 min 0 min 0,000 mm 0,0 UV-I 0 W/m² 13,4 °C 14,7 °C 3,2 km/h (1 Bft)
27.09.21 02:00:00 14,5 °C 14,5 °C 14,8 °C 93,00% 1016,6 hPa 0,0 mm 0,0 km/h (0 Bft) NW 315 ° 0 min 0 min 0,000 mm 0,0 UV-I 0 W/m² 13,4 °C 14,5 °C 3,2 km/h (1 Bft)
27.09.21 02:15:00 14,6 °C 14,3 °C 14,6 °C 94,00% 1016,5 hPa 0,0 mm 0,0 km/h (0 Bft) NW 315 ° 0 min 0 min 0,000 mm 0,0 UV-I 0 W/m² 13,6 °C 14,3 °C 1,6 km/h (1 Bft)
27.09.21 02:30:00 14,6 °C 14,5 °C 14,7 °C 94,00% 1016,5 hPa 0,0 mm 0,0 km/h (0 Bft) NW 315 ° 0 min 0 min 0,000 mm 0,0 UV-I 0 W/m² 13,6 °C 14,5 °C 3,2 km/h (1 Bft)
27.09.21 02:45:00 14,4 °C 14,4 °C 14,6 °C 93,00% 1016,4 hPa 0,0 mm 0,0 km/h (0 Bft) N-NO 22 ° 0 min 0 min 0,000 mm 0,0 UV-I 0 W/m² 13,3 °C 14,4 °C 3,2 km/h (1 Bft)
27.09.21 03:00:00 14,3 °C 14,1 °C 14,4 °C 95,00% 1016,5 hPa 0,0 mm 0,0 km/h (0 Bft) NW 315 ° 0 min 0 min 0,000 mm 0,0 UV-I 0 W/m² 13,5 °C 14,1 °C 1,6 km/h (1 Bft)
27.09.21 03:15:00 14,3 °C 14,3 °C 14,4 °C 94,00% 1016,4 hPa 0,0 mm 0,0 km/h (0 Bft) NW 315 ° 0 min 0 min 0,000 mm 0,0 UV-I 0 W/m² 13,3 °C 14,3 °C 1,6 km/h (1 Bft)
27.09.21 03:30:00 14,3 °C 14,2 °C 14,3 °C 95,00% 1016,3 hPa 0,0 mm 0,0 km/h (0 Bft) W-NW 292 ° 0 min 0 min 0,000 mm 0,0 UV-I 0 W/m² 13,5 °C 14,2 °C 3,2 km/h (1 Bft)
27.09.21 03:45:00 14,4 °C 14,3 °C 14,4 °C 95,00% 1016,4 hPa 0,0 mm 0,0 km/h (0 Bft) W 270 ° 0 min 0 min 0,000 mm 0,0 UV-I 0 W/m² 13,6 °C 14,3 °C 1,6 km/h (1 Bft)
27.09.21 04:00:00 14,7 °C 14,4 °C 14,7 °C 95,00% 1016,3 hPa 0,0 mm 0,0 km/h (0 Bft) N 360 ° 0 min 0 min 0,000 mm 0,0 UV-I 0 W/m² 13,9 °C 14,4 °C 1,6 km/h (1 Bft)
27.09.21 04:15:00 14,7 °C 14,7 °C 14,8 °C 95,00% 1016,4 hPa 0,0 mm 0,0 km/h (0 Bft) N-NO 22 ° 0 min 0 min 0,000 mm 0,0 UV-I 0 W/m² 13,9 °C 14,7 °C 3,2 km/h (1 Bft)
27.09.21 04:30:00 14,9 °C 14,7 °C 14,9 °C 95,00% 1016,3 hPa 0,2 mm 0,0 km/h (0 Bft) NW 315 ° 0 min 15 min 0,000 mm 0,0 UV-I 0 W/m² 14,1 °C 14,7 °C 3,2 km/h (1 Bft)
27.09.21 04:45:00 14,9 °C 14,7 °C 15,0 °C 95,00% 1016,3 hPa 0,0 mm 0,0 km/h (0 Bft) O-SO 112 ° 0 min 0 min 0,000 mm 0,0 UV-I 0 W/m² 14,1 °C 14,7 °C 4,8 km/h (1 Bft)
27.09.21 05:00:00 15,5 °C 14,9 °C 15,6 °C 94,00% 1016,4 hPa 0,0 mm 1,6 km/h (1 Bft) O-SO 112 ° 0 min 15 min 0,000 mm 0,0 UV-I 0 W/m² 14,5 °C 14,9 °C 6,4 km/h (2 Bft)
27.09.21 05:15:00 15,7 °C 15,6 °C 15,7 °C 93,00% 1016,1 hPa 0,0 mm 1,6 km/h (1 Bft) O-SO 112 ° 0 min 0 min 0,000 mm 0,0 UV-I 0 W/m² 14,6 °C 15,6 °C 6,4 km/h (2 Bft)
27.09.21 05:30:00 15,9 °C 15,7 °C 15,9 °C 92,00% 1015,9 hPa 0,0 mm 1,6 km/h (1 Bft) O-SO 112 ° 0 min 0 min 0,000 mm 0,0 UV-I 0 W/m² 14,6 °C 15,7 °C 9,7 km/h (2 Bft)
27.09.21 05:45:00 16,2 °C 15,9 °C 16,2 °C 91,00% 1015,9 hPa 0,0 mm 3,2 km/h (1 Bft) O-SO 112 ° 0 min 0 min 0,000 mm 0,0 UV-I 0 W/m² 14,7 °C 15,9 °C 12,9 km/h (3 Bft)
27.09.21 06:00:00 16,1 °C 16,1 °C 16,2 °C 91,00% 1015,8 hPa 0,0 mm 3,2 km/h (1 Bft) O-SO 112 ° 0 min 0 min 0,000 mm 0,0 UV-I 0 W/m² 14,6 °C 16,1 °C 14,5 km/h (3 Bft)
27.09.21 06:15:00 16,0 °C 16,0 °C 16,1 °C 91,00% 1015,6 hPa 0,0 mm 3,2 km/h (1 Bft) O-SO 112 ° 0 min 0 min 0,000 mm 0,0 UV-I 0 W/m² 14,5 °C 16,0 °C 12,9 km/h (3 Bft)
27.09.21 06:30:00 16,2 °C 16,1 °C 16,2 °C 90,00% 1015,7 hPa 0,0 mm 3,2 km/h (1 Bft) O-SO 112 ° 0 min 0 min 0,000 mm 0,0 UV-I 0 W/m² 14,6 °C 16,1 °C 14,5 km/h (3 Bft)
27.09.21 06:45:00 16,1 °C 16,0 °C 16,2 °C 90,00% 1015,7 hPa 0,0 mm 3,2 km/h (1 Bft) O-SO 112 ° 0 min 0 min 0,000 mm 0,0 UV-I 0 W/m² 14,5 °C 16,0 °C 9,7 km/h (2 Bft)
27.09.21 07:00:00 15,9 °C 15,9 °C 16,1 °C 91,00% 1015,8 hPa 0,0 mm 3,2 km/h (1 Bft) O-SO 112 ° 0 min 0 min 0,000 mm 0,0 UV-I 0 W/m² 14,4 °C 15,9 °C 11,3 km/h (2 Bft)
27.09.21 07:15:00 16,0 °C 15,9 °C 16,0 °C 91,00% 1015,9 hPa 0,0 mm 6,4 km/h (2 Bft) SO 135 ° 0 min 0 min 0,000 mm 0,0 UV-I 0 W/m² 14,5 °C 15,9 °C 16,1 km/h (3 Bft)
27.09.21 07:30:00 16,0 °C 15,9 °C 16,0 °C 91,00% 1016,2 hPa 0,0 mm 4,8 km/h (1 Bft) SO 135 ° 15 min 0 min 0,000 mm 0,0 UV-I 11 W/m² 14,5 °C 15,9 °C 16,1 km/h (3 Bft)
27.09.21 07:45:00 15,9 °C 15,9 °C 16,0 °C 91,00% 1016,2 hPa 0,0 mm 4,8 km/h (1 Bft) SO 135 ° 15 min 0 min 0,000 mm 0,0 UV-I 24 W/m² 14,4 °C 15,9 °C 14,5 km/h (3 Bft)
27.09.21 08:00:00 16,0 °C 15,9 °C 16,1 °C 91,00% 1016,1 hPa 0,0 mm 3,2 km/h (1 Bft) SO 135 ° 15 min 0 min 0,025 mm 0,0 UV-I 40 W/m² 14,5 °C 15,9 °C 11,3 km/h (2 Bft)
27.09.21 08:15:00 16,1 °C 16,1 °C 16,1 °C 90,00% 1016,1 hPa 0,0 mm 4,8 km/h (1 Bft) SO 135 ° 15 min 0 min 0,000 mm 0,0 UV-I 48 W/m² 14,5 °C 16,1 °C 14,5 km/h (3 Bft)
27.09.21 08:30:00 16,3 °C 16,1 °C 16,3 °C 90,00% 1015,8 hPa 0,0 mm 3,2 km/h (1 Bft) SO 135 ° 15 min 0 min 0,000 mm 0,0 UV-I 51 W/m² 14,7 °C 16,1 °C 12,9 km/h (3 Bft)
27.09.21 08:45:00 16,4 °C 16,3 °C 16,4 °C 90,00% 1015,8 hPa 0,0 mm 3,2 km/h (1 Bft) O-SO 112 ° 15 min 0 min 0,000 mm 0,0 UV-I 79 W/m² 14,8 °C 16,3 °C 12,9 km/h (3 Bft)
27.09.21 09:00:00 16,6 °C 16,4 °C 16,6 °C 90,00% 1015,9 hPa 0,0 mm 6,4 km/h (2 Bft) SO 135 ° 15 min 0 min 0,051 mm 0,0 UV-I 99 W/m² 15,0 °C 16,4 °C 16,1 km/h (3 Bft)
27.09.21 09:15:00 16,6 °C 16,6 °C 16,7 °C 89,00% 1016,1 hPa 0,0 mm 6,4 km/h (2 Bft) SO 135 ° 15 min 0 min 0,000 mm 0,0 UV-I 65 W/m² 14,8 °C 16,6 °C 17,7 km/h (3 Bft)
27.09.21 09:30:00 16,5 °C 16,5 °C 16,7 °C 89,00% 1016,2 hPa 0,0 mm 6,4 km/h (2 Bft) SO 135 ° 15 min 0 min 0,000 mm 0,0 UV-I 43 W/m² 14,7 °C 16,5 °C 16,1 km/h (3 Bft)
27.09.21 09:45:00 16,3 °C 16,3 °C 16,6 °C 90,00% 1016,1 hPa 0,0 mm 4,8 km/h (1 Bft) O-SO 112 ° 15 min 0 min 0,000 mm 0,0 UV-I 44 W/m² 14,7 °C 16,3 °C 14,5 km/h (3 Bft)
27.09.21 10:00:00 16,3 °C 16,2 °C 16,3 °C 91,00% 1016,2 hPa 0,0 mm 4,8 km/h (1 Bft) SO 135 ° 15 min 0 min 0,051 mm 0,4 UV-I 75 W/m² 14,8 °C 16,2 °C 14,5 km/h (3 Bft)
27.09.21 10:15:00 16,4 °C 16,3 °C 16,4 °C 90,00% 1016,2 hPa 0,0 mm 6,4 km/h (2 Bft) SO 135 ° 15 min 0 min 0,000 mm 0,1 UV-I 61 W/m² 14,8 °C 16,3 °C 17,7 km/h (3 Bft)
27.09.21 10:30:00 16,5 °C 16,4 °C 16,5 °C 90,00% 1016,0 hPa 0,0 mm 4,8 km/h (1 Bft) SO 135 ° 15 min 0 min 0,000 mm 0,5 UV-I 75 W/m² 14,9 °C 16,4 °C 17,7 km/h (3 Bft)
27.09.21 10:45:00 16,4 °C 16,4 °C 16,5 °C 91,00% 1016,0 hPa 0,0 mm 4,8 km/h (1 Bft) SO 135 ° 15 min 0 min 0,000 mm 0,1 UV-I 55 W/m² 14,9 °C 16,4 °C 16,1 km/h (3 Bft)
27.09.21 11:00:00 16,6 °C 16,4 °C 16,6 °C 91,00% 1015,8 hPa 0,0 mm 3,2 km/h (1 Bft) O-SO 112 ° 15 min 0 min 0,051 mm 0,5 UV-I 79 W/m² 15,1 °C 16,4 °C 14,5 km/h (3 Bft)
27.09.21 11:15:00 17,0 °C 16,6 °C 17,0 °C 90,00% 1015,8 hPa 0,0 mm 4,8 km/h (1 Bft) SO 135 ° 15 min 0 min 0,000 mm 0,9 UV-I 142 W/m² 15,3 °C 16,6 °C 11,3 km/h (2 Bft)
27.09.21 11:30:00 17,1 °C 17,0 °C 17,2 °C 90,00% 1016,2 hPa 0,0 mm 8,0 km/h (2 Bft) SO 135 ° 15 min 0 min 0,000 mm 0,9 UV-I 126 W/m² 15,4 °C 17,0 °C 20,9 km/h (4 Bft)
27.09.21 11:45:00 17,2 °C 17,1 °C 17,2 °C 90,00% 1016,3 hPa 0,0 mm 8,0 km/h (2 Bft) SO 135 ° 15 min 0 min 0,000 mm 0,8 UV-I 124 W/m² 15,5 °C 17,1 °C 20,9 km/h (4 Bft)
27.09.21 12:00:00 17,3 °C 17,2 °C 17,3 °C 90,00% 1016,3 hPa 0,0 mm 8,0 km/h (2 Bft) SO 135 ° 15 min 0 min 0,076 mm 0,6 UV-I 94 W/m² 15,6 °C 17,2 °C 19,3 km/h (3 Bft)
27.09.21 12:15:00 17,4 °C 17,3 °C 17,4 °C 90,00% 1016,2 hPa 0,0 mm 8,0 km/h (2 Bft) SO 135 ° 15 min 0 min 0,000 mm 0,5 UV-I 75 W/m² 15,7 °C 17,3 °C 19,3 km/h (3 Bft)
27.09.21 12:30:00 17,6 °C 17,4 °C 17,6 °C 90,00% 1016,3 hPa 0,0 mm 6,4 km/h (2 Bft) SO 135 ° 15 min 0 min 0,000 mm 0,6 UV-I 78 W/m² 15,9 °C 17,4 °C 17,7 km/h (3 Bft)
27.09.21 12:45:00 17,7 °C 17,6 °C 17,7 °C 90,00% 1016,2 hPa 0,0 mm 4,8 km/h (1 Bft) SO 135 ° 15 min 0 min 0,000 mm 0,3 UV-I 65 W/m² 16,0 °C 17,6 °C 12,9 km/h (3 Bft)
27.09.21 13:00:00 18,0 °C 17,7 °C 18,0 °C 89,00% 1016,2 hPa 0,0 mm 6,4 km/h (2 Bft) SO 135 ° 15 min 0 min 0,051 mm 0,7 UV-I 100 W/m² 16,2 °C 17,7 °C 16,1 km/h (3 Bft)
27.09.21 13:15:00 18,1 °C 18,1 °C 18,2 °C 89,00% 1016,1 hPa 0,0 mm 9,7 km/h (2 Bft) SO 135 ° 15 min 0 min 0,000 mm 0,8 UV-I 104 W/m² 16,3 °C 18,1 °C 22,5 km/h (4 Bft)
27.09.21 13:30:00 18,6 °C 18,1 °C 18,6 °C 88,00% 1015,9 hPa 0,0 mm 6,4 km/h (2 Bft) SO 135 ° 15 min 0 min 0,000 mm 1,1 UV-I 156 W/m² 16,6 °C 18,1 °C 24,1 km/h (4 Bft)
27.09.21 13:45:00 18,7 °C 18,6 °C 18,7 °C 87,00% 1015,8 hPa 0,0 mm 8,0 km/h (2 Bft) SO 135 ° 15 min 0 min 0,000 mm 1,1 UV-I 148 W/m² 16,5 °C 18,6 °C 20,9 km/h (4 Bft)
27.09.21 14:00:00 18,8 °C 18,7 °C 18,8 °C 88,00% 1016,0 hPa 0,0 mm 6,4 km/h (2 Bft) SO 135 ° 15 min 0 min 0,076 mm 0,8 UV-I 109 W/m² 16,8 °C 18,7 °C 19,3 km/h (3 Bft)
27.09.21 14:15:00 18,8 °C 18,8 °C 18,8 °C 87,00% 1015,9 hPa 0,0 mm 8,0 km/h (2 Bft) SO 135 ° 15 min 0 min 0,000 mm 0,4 UV-I 72 W/m² 16,6 °C 18,8 °C 17,7 km/h (3 Bft)
27.09.21 14:30:00 18,8 °C 18,8 °C 18,9 °C 88,00% 1016,0 hPa 0,0 mm 8,0 km/h (2 Bft) SO 135 ° 15 min 0 min 0,000 mm 0,4 UV-I 64 W/m² 16,8 °C 18,8 °C 19,3 km/h (3 Bft)
27.09.21 14:45:00 19,0 °C 18,8 °C 19,0 °C 88,00% 1015,9 hPa 0,0 mm 6,4 km/h (2 Bft) SO 135 ° 15 min 0 min 0,000 mm 0,4 UV-I 69 W/m² 17,0 °C 18,8 °C 12,9 km/h (3 Bft)
27.09.21 15:00:00 19,0 °C 18,9 °C 19,1 °C 87,00% 1015,9 hPa 0,0 mm 6,4 km/h (2 Bft) SO 135 ° 15 min 0 min 0,051 mm 0,1 UV-I 60 W/m² 16,8 °C 18,9 °C 22,5 km/h (4 Bft)
27.09.21 15:15:00 19,0 °C 19,0 °C 19,1 °C 87,00% 1015,8 hPa 0,0 mm 4,8 km/h (1 Bft) S-SO 157 ° 15 min 0 min 0,000 mm 0,0 UV-I 54 W/m² 16,8 °C 19,0 °C 16,1 km/h (3 Bft)
27.09.21 15:30:00 19,3 °C 18,9 °C 19,4 °C 86,00% 1015,7 hPa 0,0 mm 6,4 km/h (2 Bft) SO 135 ° 15 min 0 min 0,000 mm 0,6 UV-I 137 W/m² 16,9 °C 18,9 °C 19,3 km/h (3 Bft)
27.09.21 15:45:00 19,6 °C 19,4 °C 19,7 °C 85,00% 1015,8 hPa 0,0 mm 8,0 km/h (2 Bft) S-SO 157 ° 15 min 0 min 0,000 mm 0,9 UV-I 143 W/m² 17,0 °C 19,4 °C 19,3 km/h (3 Bft)
27.09.21 16:00:00 19,7 °C 19,5 °C 19,7 °C 84,00% 1015,7 hPa 0,0 mm 8,0 km/h (2 Bft) SO 135 ° 15 min 0 min 0,076 mm 0,9 UV-I 148 W/m² 16,9 °C 19,5 °C 19,3 km/h (3 Bft)
27.09.21 16:15:00 20,1 °C 19,6 °C 20,1 °C 83,00% 1015,5 hPa 0,0 mm 8,0 km/h (2 Bft) SO 135 ° 15 min 0 min 0,000 mm 1,0 UV-I 222 W/m² 17,1 °C 19,6 °C 19,3 km/h (3 Bft)
27.09.21 16:30:00 20,3 °C 20,1 °C 20,4 °C 83,00% 1015,5 hPa 0,0 mm 8,0 km/h (2 Bft) SO 135 ° 15 min 0 min 0,000 mm 1,0 UV-I 240 W/m² 17,3 °C 20,1 °C 19,3 km/h (3 Bft)
27.09.21 16:45:00 19,9 °C 19,9 °C 20,3 °C 83,00% 1015,5 hPa 0,0 mm 8,0 km/h (2 Bft) SO 135 ° 15 min 0 min 0,000 mm 0,7 UV-I 123 W/m² 16,9 °C 19,9 °C 19,3 km/h (3 Bft)
27.09.21 17:00:00 20,0 °C 19,9 °C 20,0 °C 84,00% 1015,3 hPa 0,0 mm 4,8 km/h (1 Bft) SO 135 ° 15 min 0 min 0,127 mm 0,1 UV-I 97 W/m² 17,2 °C 19,9 °C 12,9 km/h (3 Bft)
27.09.21 17:15:00 20,0 °C 19,9 °C 20,0 °C 84,00% 1015,3 hPa 0,0 mm 3,2 km/h (1 Bft) O-SO 112 ° 15 min 0 min 0,000 mm 0,0 UV-I 79 W/m² 17,2 °C 19,9 °C 19,3 km/h (3 Bft)
27.09.21 17:30:00 19,8 °C 19,8 °C 20,0 °C 84,00% 1015,4 hPa 0,0 mm 4,8 km/h (1 Bft) O-SO 112 ° 15 min 0 min 0,000 mm 0,0 UV-I 73 W/m² 17,0 °C 19,8 °C 12,9 km/h (3 Bft)
27.09.21 17:45:00 19,6 °C 19,6 °C 19,8 °C 84,00% 1015,4 hPa 0,0 mm 4,8 km/h (1 Bft) SO 135 ° 15 min 0 min 0,000 mm 0,0 UV-I 47 W/m² 16,8 °C 19,6 °C 14,5 km/h (3 Bft)
27.09.21 18:00:00 19,3 °C 19,3 °C 19,6 °C 85,00% 1015,5 hPa 0,0 mm 4,8 km/h (1 Bft) SO 135 ° 15 min 0 min 0,051 mm 0,0 UV-I 23 W/m² 16,7 °C 19,3 °C 14,5 km/h (3 Bft)
27.09.21 18:15:00 19,1 °C 19,1 °C 19,3 °C 85,00% 1015,6 hPa 0,0 mm 6,4 km/h (2 Bft) SO 135 ° 15 min 0 min 0,000 mm 0,0 UV-I 21 W/m² 16,5 °C 19,1 °C 17,7 km/h (3 Bft)
27.09.21 18:30:00 18,8 °C 18,8 °C 19,1 °C 85,00% 1015,6 hPa 0,0 mm 6,4 km/h (2 Bft) SO 135 ° 15 min 0 min 0,000 mm 0,0 UV-I 13 W/m² 16,2 °C 18,8 °C 20,9 km/h (4 Bft)
27.09.21 18:45:00 18,7 °C 18,6 °C 18,9 °C 86,00% 1015,7 hPa 0,0 mm 8,0 km/h (2 Bft) SO 135 ° 15 min 0 min 0,000 mm 0,0 UV-I 2 W/m² 16,3 °C 18,6 °C 22,5 km/h (4 Bft)
27.09.21 19:00:00 18,4 °C 18,4 °C 18,7 °C 87,00% 1015,8 hPa 0,0 mm 6,4 km/h (2 Bft) SO 135 ° 0 min 0 min 0,025 mm 0,0 UV-I 0 W/m² 16,2 °C 18,4 °C 25,7 km/h (4 Bft)
27.09.21 19:15:00 18,2 °C 18,2 °C 18,4 °C 87,00% 1015,8 hPa 0,0 mm 6,4 km/h (2 Bft) SO 135 ° 0 min 0 min 0,000 mm 0,0 UV-I 0 W/m² 16,0 °C 18,2 °C 16,1 km/h (3 Bft)
27.09.21 19:30:00 18,1 °C 18,1 °C 18,2 °C 88,00% 1015,9 hPa 0,0 mm 8,0 km/h (2 Bft) SO 135 ° 0 min 0 min 0,000 mm 0,0 UV-I 0 W/m² 16,1 °C 18,1 °C 16,1 km/h (3 Bft)
27.09.21 19:45:00 18,0 °C 18,0 °C 18,1 °C 88,00% 1015,9 hPa 0,0 mm 6,4 km/h (2 Bft) SO 135 ° 0 min 0 min 0,000 mm 0,0 UV-I 0 W/m² 16,0 °C 18,0 °C 16,1 km/h (3 Bft)
27.09.21 20:00:00 17,9 °C 17,9 °C 18,1 °C 89,00% 1015,9 hPa 0,0 mm 6,4 km/h (2 Bft) SO 135 ° 0 min 0 min 0,025 mm 0,0 UV-I 0 W/m² 16,1 °C 17,9 °C 17,7 km/h (3 Bft)
27.09.21 20:15:00 17,8 °C 17,8 °C 17,9 °C 89,00% 1015,8 hPa 0,0 mm 6,4 km/h (2 Bft) SO 135 ° 0 min 0 min 0,000 mm 0,0 UV-I 0 W/m² 16,0 °C 17,8 °C 17,7 km/h (3 Bft)
27.09.21 20:30:00 17,8 °C 17,8 °C 17,8 °C 90,00% 1016,0 hPa 0,0 mm 8,0 km/h (2 Bft) SO 135 ° 0 min 0 min 0,000 mm 0,0 UV-I 0 W/m² 16,1 °C 17,8 °C 17,7 km/h (3 Bft)
27.09.21 20:45:00 17,6 °C 17,6 °C 17,8 °C 90,00% 1016,0 hPa 0,0 mm 8,0 km/h (2 Bft) SO 135 ° 0 min 0 min 0,000 mm 0,0 UV-I 0 W/m² 15,9 °C 17,6 °C 17,7 km/h (3 Bft)
27.09.21 21:00:00 17,5 °C 17,5 °C 17,6 °C 91,00% 1016,1 hPa 0,0 mm 8,0 km/h (2 Bft) SO 135 ° 0 min 0 min 0,025 mm 0,0 UV-I 0 W/m² 16,0 °C 17,5 °C 17,7 km/h (3 Bft)
27.09.21 21:15:00 17,5 °C 17,4 °C 17,6 °C 91,00% 1015,9 hPa 0,0 mm 8,0 km/h (2 Bft) SO 135 ° 0 min 0 min 0,000 mm 0,0 UV-I 0 W/m² 16,0 °C 17,4 °C 19,3 km/h (3 Bft)
27.09.21 21:30:00 17,4 °C 17,4 °C 17,6 °C 91,00% 1016,0 hPa 0,0 mm 8,0 km/h (2 Bft) SO 135 ° 0 min 0 min 0,000 mm 0,0 UV-I 0 W/m² 15,9 °C 17,4 °C 17,7 km/h (3 Bft)
27.09.21 21:45:00 17,4 °C 17,4 °C 17,4 °C 91,00% 1016,3 hPa 0,0 mm 6,4 km/h (2 Bft) SO 135 ° 0 min 0 min 0,000 mm 0,0 UV-I 0 W/m² 15,9 °C 17,4 °C 17,7 km/h (3 Bft)
27.09.21 22:00:00 17,3 °C 17,3 °C 17,5 °C 92,00% 1016,3 hPa 0,0 mm 6,4 km/h (2 Bft) SO 135 ° 0 min 0 min 0,025 mm 0,0 UV-I 0 W/m² 16,0 °C 17,3 °C 14,5 km/h (3 Bft)
27.09.21 22:15:00 17,2 °C 17,2 °C 17,3 °C 92,00% 1016,2 hPa 0,0 mm 4,8 km/h (1 Bft) SO 135 ° 0 min 0 min 0,000 mm 0,0 UV-I 0 W/m² 15,9 °C 17,2 °C 14,5 km/h (3 Bft)
27.09.21 22:30:00 17,1 °C 17,1 °C 17,2 °C 93,00% 1016,3 hPa 0,0 mm 4,8 km/h (1 Bft) SO 135 ° 0 min 0 min 0,000 mm 0,0 UV-I 0 W/m² 16,0 °C 17,1 °C 14,5 km/h (3 Bft)
27.09.21 22:45:00 17,0 °C 17,0 °C 17,1 °C 93,00% 1016,4 hPa 0,0 mm 4,8 km/h (1 Bft) SO 135 ° 0 min 0 min 0,000 mm 0,0 UV-I 0 W/m² 15,9 °C 17,0 °C 12,9 km/h (3 Bft)
27.09.21 23:00:00 16,9 °C 16,9 °C 17,0 °C 93,00% 1016,5 hPa 0,0 mm 4,8 km/h (1 Bft) SO 135 ° 0 min 0 min 0,000 mm 0,0 UV-I 0 W/m² 15,8 °C 16,9 °C 14,5 km/h (3 Bft)
27.09.21 23:15:00 16,9 °C 16,9 °C 17,0 °C 93,00% 1016,5 hPa 0,0 mm 3,2 km/h (1 Bft) SO 135 ° 0 min 0 min 0,000 mm 0,0 UV-I 0 W/m² 15,8 °C 16,9 °C 11,3 km/h (2 Bft)
27.09.21 23:30:00 16,9 °C 16,9 °C 16,9 °C 93,00% 1016,5 hPa 0,0 mm 3,2 km/h (1 Bft) SO 135 ° 0 min 0 min 0,000 mm 0,0 UV-I 0 W/m² 15,8 °C 16,9 °C 11,3 km/h (2 Bft)
_ Min-Zeit 03:00:00 03:00:00 03:30:00 16:45:00 17:15:00 - 04:45:00 - - - - - - - 02:45:00 03:00:00 04:00:00
Minimum _ 14,1 °C 14,1 °C 14,3 °C 83,00% 1015,3 hPa - 0,0 km/h (0 Bft) - - - - - - - 13,3 °C 14,1 °C 1,6 km/h (1 Bft)
_ Max-Zeit 16:30:00 16:30:00 16:30:00 04:45:00 00:00:00 04:30:00 13:15:00 - - 18:45:00 05:00:00 17:00:00 13:45:00 16:30:00 16:30:00 16:30:00 19:00:00
Maximum _ 20,4 °C 20,1 °C 20,4 °C 95,00% 1016,9 hPa 0,2 mm 9,7 km/h - - 15 min 15 min 0,127 mm 1,1 UV-I 240 W/m² 17,3 °C 20,1 °C 25,7 km/h
SO (2 Bft) SO (4 Bft)
Durchschnitt _ 17,0 °C 16,9 °C 17,1 °C 90,00% 1016,1 hPa #0,2 mm 4,5 km/h (1 Bft) SO - #11:30 h #30 min. #0,786 mm 0,6 UV-I 41 W/m² 15,3 °C 16,9 °C 13,5 km/h (3 Bft)

                                                                                                                                                                           _________________________________________________________________________________________________________________________________________________________________________

 Anomalie Daten

ausgewähltes Produkt zur Leistung: Zeitreihen und Trends
 
ausgewähltes Produkt zur Leistung:

 

 

ausgewähltes Produkt zur Leistung: Zeitreihen und Trends

Absolut Daten

ausgewähltes Produkt zur Leistung: Zeitreihen und Trends
ausgewähltes Produkt zur Leistung: Zeitreihen und Trends

 

ausgewähltes Produkt zur Leistung: Zeitreihen und Trends

 

2009 - 2021

Unwetterwarnungen

 

  Radarbild           

aktueller Radarfilm Deutschland

  Europa-Meteoalarm    

     

Deutschlandkarte mit dem Tageswert des Waldbrand-Gefahrenindex WBI, heute